Radiation Dose at Monitoring Post of Fukushima Daini Nuclear Power Station
Date,Time,MP-1(microSv/h),MP-2(microSv/h),MP-3(microSv/h),MP-4(microSv/h),MP-5(microSv/h),MP-6(microSv/h),MP-7(microSv/h),Wind Direction,Wind Velocity(m/s),Rain
2016/05/16,00:00,0.445,0.261,0.466,0.415,0.389,0.211,0.182,south-southwest,0.6,No
2016/05/16,00:10,0.447,0.258,0.473,0.413,0.390,0.209,0.182,southwest,0.7,No
2016/05/16,00:20,0.447,0.259,0.467,0.414,0.390,0.209,0.183,south-southwest,1.2,No
2016/05/16,00:30,0.445,0.260,0.470,0.414,0.392,0.209,0.182,south-southwest,1.4,No
2016/05/16,00:40,0.450,0.259,0.469,0.415,0.391,0.209,0.182,south-southwest,1.1,No
2016/05/16,00:50,0.446,0.259,0.468,0.414,0.391,0.210,0.182,south-southwest,1.4,No
2016/05/16,01:00,0.448,0.260,0.471,0.413,0.391,0.210,0.182,south-southwest,2.1,No
2016/05/16,01:10,0.447,0.258,0.468,0.415,0.391,0.210,0.182,south-southwest,3.0,No
2016/05/16,01:20,0.447,0.260,0.470,0.413,0.391,0.210,0.182,south-southwest,2.9,No
2016/05/16,01:30,0.450,0.258,0.468,0.416,0.390,0.208,0.182,south-southwest,2.6,No
2016/05/16,01:40,0.446,0.260,0.470,0.415,0.393,0.210,0.182,south,2.5,No
2016/05/16,01:50,0.450,0.259,0.471,0.414,0.390,0.209,0.182,south,1.8,No
2016/05/16,02:00,0.447,0.259,0.468,0.415,0.392,0.210,0.183,south,1.9,No
2016/05/16,02:10,0.449,0.261,0.471,0.414,0.392,0.211,0.183,south-southwest,2.9,No
2016/05/16,02:20,0.446,0.259,0.468,0.417,0.390,0.210,0.184,south-southwest,3.3,No
2016/05/16,02:30,0.445,0.259,0.471,0.414,0.392,0.210,0.183,south-southwest,3.7,No
2016/05/16,02:40,0.448,0.260,0.470,0.415,0.391,0.210,0.182,southwest,4.6,No
2016/05/16,02:50,0.445,0.260,0.471,0.416,0.391,0.209,0.183,southwest,3.6,No
2016/05/16,03:00,0.448,0.258,0.471,0.414,0.390,0.208,0.181,southwest,4.1,No
2016/05/16,03:10,0.448,0.260,0.470,0.417,0.390,0.211,0.182,southwest,4.2,No
2016/05/16,03:20,0.447,0.259,0.472,0.414,0.393,0.209,0.183,southwest,3.9,No
2016/05/16,03:30,0.447,0.260,0.468,0.417,0.391,0.210,0.183,south-southwest,2.8,No
2016/05/16,03:40,0.448,0.261,0.473,0.416,0.392,0.209,0.183,south-southwest,2.6,No
2016/05/16,03:50,0.449,0.258,0.469,0.414,0.393,0.209,0.182,southwest,3.0,No
2016/05/16,04:00,0.447,0.261,0.469,0.418,0.391,0.211,0.182,southwest,3.3,No
2016/05/16,04:10,0.448,0.260,0.470,0.414,0.393,0.210,0.183,southwest,3.4,No
2016/05/16,04:20,0.449,0.260,0.469,0.416,0.390,0.210,0.183,southwest,3.9,No
2016/05/16,04:30,0.448,0.261,0.472,0.415,0.392,0.210,0.183,south-southwest,4.9,No
2016/05/16,04:40,0.450,0.259,0.468,0.414,0.391,0.210,0.182,south-southwest,4.8,No
2016/05/16,04:50,0.449,0.260,0.471,0.416,0.390,0.210,0.182,south,3.2,No
2016/05/16,05:00,0.449,0.261,0.472,0.415,0.392,0.210,0.183,south,2.8,No
2016/05/16,05:10,0.446,0.259,0.468,0.417,0.392,0.209,0.184,south,2.4,No
2016/05/16,05:20,0.449,0.260,0.473,0.415,0.391,0.209,0.182,south-southeast,1.9,No
2016/05/16,05:30,0.449,0.260,0.470,0.414,0.391,0.210,0.183,south-southeast,1.9,No
2016/05/16,05:40,0.448,0.259,0.472,0.416,0.391,0.211,0.182,east,0.7,No
2016/05/16,05:50,0.450,0.260,0.471,0.414,0.392,0.211,0.182,southeast,1.1,No
2016/05/16,06:00,0.446,0.258,0.469,0.416,0.390,0.209,0.183,south,0.6,No
2016/05/16,06:10,0.450,0.259,0.472,0.416,0.392,0.209,0.182,south,1.4,No
2016/05/16,06:20,0.446,0.259,0.468,0.414,0.389,0.210,0.183,south-southeast,1.6,No
2016/05/16,06:30,0.450,0.260,0.470,0.416,0.395,0.210,0.183,southeast,2.1,No
2016/05/16,06:40,0.447,0.260,0.467,0.413,0.389,0.210,0.183,south,1.4,No
2016/05/16,06:50,0.447,0.259,0.471,0.415,0.395,0.209,0.182,south-southeast,1.9,No
2016/05/16,07:00,0.447,0.259,0.465,0.412,0.389,0.210,0.183,southeast,1.7,No
2016/05/16,07:10,0.445,0.259,0.469,0.414,0.393,0.210,0.183,southeast,1.8,No
2016/05/16,07:20,0.448,0.259,0.464,0.412,0.390,0.210,0.183,southeast,2.3,No
2016/05/16,07:30,0.447,0.260,0.470,0.415,0.392,0.210,0.182,southeast,2.1,No
2016/05/16,07:40,0.446,0.259,0.466,0.413,0.389,0.209,0.181,south-southeast,2.5,No
2016/05/16,07:50,0.446,0.258,0.467,0.414,0.393,0.210,0.183,south,3.1,No
2016/05/16,08:00,0.445,0.260,0.469,0.412,0.389,0.209,0.182,south,2.3,No
2016/05/16,08:10,0.448,0.258,0.468,0.410,0.393,0.209,0.181,south,4.0,No
2016/05/16,08:20,0.443,0.258,0.471,0.416,0.391,0.210,0.182,south,7.8,No
2016/05/16,08:30,0.446,0.260,0.466,0.410,0.391,0.208,0.181,south,6.9,No
2016/05/16,08:40,0.444,0.257,0.470,0.410,0.393,0.209,0.182,south,8.1,No
2016/05/16,08:50,0.440,0.259,0.468,0.414,0.391,0.208,0.183,south,8.9,No
2016/05/16,09:00,0.446,0.259,0.471,0.412,0.392,0.209,0.181,south,9.5,No
2016/05/16,09:10,0.447,0.256,0.466,0.410,0.392,0.208,0.180,south,10.1,No
2016/05/16,09:20,0.442,0.260,0.471,0.415,0.390,0.209,0.183,south,8.9,No
2016/05/16,09:30,0.444,0.259,0.468,0.412,0.392,0.210,0.181,south,8.9,No
2016/05/16,09:40,0.448,0.258,0.469,0.408,0.390,0.208,0.183,south,9.5,No
2016/05/16,09:50,-,0.259,0.471,0.415,0.393,0.210,0.182,south,10.1,No
2016/05/16,10:00,-,0.258,0.466,0.415,0.392,0.210,0.182,south,8.9,No
2016/05/16,10:10,-,0.258,0.471,0.409,0.388,0.208,0.184,south,8.5,No
2016/05/16,10:20,-,0.260,0.469,0.412,0.394,0.208,0.182,south-southeast,7.6,No
2016/05/16,10:30,-,0.259,0.462,0.417,0.390,0.209,0.182,south,8.9,No
2016/05/16,10:40,-,0.258,0.470,0.412,0.388,0.210,0.183,south,9.0,No
2016/05/16,10:50,-,0.260,0.469,0.411,0.394,0.210,0.182,south,9.1,No
2016/05/16,11:00,-,0.258,0.465,0.417,0.390,0.208,0.182,south,9.5,No
2016/05/16,11:10,-,0.259,0.467,0.413,0.391,0.210,0.183,south,10.4,No
2016/05/16,11:20,-,0.260,0.471,0.411,0.394,0.210,0.183,south,12.0,No
2016/05/16,11:30,-,0.258,0.466,0.416,0.391,0.209,0.182,south,13.2,No
2016/05/16,11:40,-,0.260,0.465,0.416,0.389,0.210,0.183,south,11.7,No
2016/05/16,11:50,-,0.261,0.472,0.411,0.393,0.210,0.183,south,11.4,No
2016/05/16,12:00,-,0.258,0.469,0.416,0.390,0.209,0.182,south,11.5,No
2016/05/16,12:10,-,0.259,0.465,0.415,0.388,0.210,0.183,south,13.7,No
2016/05/16,12:20,-,0.259,0.465,0.412,0.393,0.209,0.183,south,14.4,No
2016/05/16,12:30,-,0.259,0.471,0.414,0.391,0.209,0.182,south,14.2,No
2016/05/16,12:40,-,0.261,0.469,0.417,0.386,0.210,0.183,south,14.6,No
2016/05/16,12:50,-,0.259,0.464,0.413,0.394,0.209,0.183,south,13.2,No
2016/05/16,13:00,-,0.259,0.467,0.412,0.392,0.209,0.182,south,15.6,No
2016/05/16,13:10,-,0.260,0.471,0.418,0.389,0.210,0.182,south,15.5,No
2016/05/16,13:20,-,0.259,0.468,0.413,0.393,0.209,0.182,south,14.5,No
2016/05/16,13:30,-,0.259,0.465,0.413,0.394,0.210,0.182,south,15.1,No
2016/05/16,13:40,-,0.260,0.470,0.418,0.390,0.210,0.184,south,15.3,No
2016/05/16,13:50,-,0.259,0.472,0.416,0.391,0.210,0.183,south,14.9,No
2016/05/16,14:00,-,0.261,0.469,0.413,0.394,0.210,0.181,south,14.4,No
2016/05/16,14:10,-,0.260,0.464,0.419,0.391,0.210,0.183,south,15.0,No
2016/05/16,14:20,-,0.258,0.472,0.418,0.391,0.209,0.182,south,14.1,No
2016/05/16,14:30,-,0.261,0.472,0.412,0.394,0.210,0.183,south,15.3,No
2016/05/16,14:40,-,0.260,0.470,0.416,0.390,0.209,0.182,south,14.1,No
2016/05/16,14:50,-,0.260,0.467,0.417,0.391,0.208,0.182,south,12.5,No
2016/05/16,15:00,-,0.261,0.476,0.415,0.395,0.211,0.183,south,13.4,No
2016/05/16,15:10,-,0.261,0.471,0.418,0.391,0.210,0.183,south,14.8,No
2016/05/16,15:20,0.446,0.259,0.468,0.413,0.392,0.210,0.184,south,14.4,No
2016/05/16,15:30,0.450,0.261,0.474,0.417,0.395,0.210,0.183,south,12.7,No
2016/05/16,15:40,0.447,0.260,0.469,0.418,0.391,0.209,0.184,south,12.0,No
2016/05/16,15:50,0.447,0.260,0.467,0.416,0.393,0.209,0.183,south,13.2,No
2016/05/16,16:00,0.451,0.261,0.473,0.419,0.392,0.211,0.183,south,11.3,No
2016/05/16,16:10,0.445,0.259,0.467,0.414,0.391,0.211,0.183,south,12.7,No
2016/05/16,16:20,0.452,0.262,0.474,0.418,0.394,0.210,0.183,south,10.2,No
2016/05/16,16:30,0.449,0.260,0.472,0.416,0.391,0.209,0.183,south-southwest,8.7,No
2016/05/16,16:40,0.447,0.260,0.470,0.415,0.394,0.211,0.183,south,8.6,No
2016/05/16,16:50,0.448,0.261,0.474,0.417,0.395,0.210,0.184,south,9.0,No
2016/05/16,17:00,0.444,0.260,0.467,0.413,0.390,0.209,0.184,south,7.0,No
2016/05/16,17:10,0.451,0.262,0.475,0.419,0.395,0.211,0.182,south-southwest,8.1,No
2016/05/16,17:20,0.447,0.259,0.470,0.416,0.391,0.209,0.183,south,6.4,No
2016/05/16,17:30,0.449,0.261,0.470,0.416,0.396,0.211,0.183,south-southwest,8.1,No
2016/05/16,17:40,0.449,0.261,0.472,0.419,0.391,0.210,0.183,south,8.3,No
2016/05/16,17:50,0.446,0.260,0.468,0.417,0.393,0.211,0.183,south-southwest,9.4,No
2016/05/16,18:00,0.450,0.261,0.475,0.419,0.393,0.210,0.184,south-southwest,9.5,No
2016/05/16,18:10,0.446,0.259,0.469,0.415,0.391,0.209,0.183,south-southwest,10.4,No
2016/05/16,18:20,0.451,0.261,0.474,0.420,0.394,0.210,0.184,south,7.6,No
2016/05/16,18:30,0.448,0.259,0.472,0.415,0.390,0.210,0.182,south-southwest,8.5,No
2016/05/16,18:40,0.446,0.262,0.472,0.418,0.394,0.210,0.183,south-southwest,10.2,No
2016/05/16,18:50,0.450,0.260,0.473,0.418,0.390,0.210,0.183,south,9.7,No
2016/05/16,19:00,0.445,0.261,0.469,0.418,0.394,0.210,0.183,south,8.5,No
2016/05/16,19:10,0.451,0.261,0.473,0.418,0.392,0.210,0.183,south,10.2,No
2016/05/16,19:20,0.446,0.261,0.468,0.414,0.394,0.211,0.185,south,9.5,No
2016/05/16,19:30,0.450,0.260,0.476,0.419,0.393,0.210,0.182,south,9.5,No
2016/05/16,19:40,0.446,0.260,0.470,0.416,0.390,0.211,0.184,south-southwest,12.0,No
2016/05/16,19:50,0.448,0.261,0.473,0.420,0.393,0.209,0.184,south-southwest,11.9,No
2016/05/16,20:00,0.449,0.259,0.473,0.416,0.392,0.212,0.184,south-southwest,12.7,No
2016/05/16,20:10,0.448,0.261,0.470,0.419,0.395,0.211,0.183,south-southwest,13.0,No
2016/05/16,20:20,0.450,0.260,0.474,0.416,0.392,0.210,0.184,south-southwest,11.2,No
2016/05/16,20:30,0.446,0.262,0.470,0.417,0.393,0.211,0.183,south-southwest,11.0,No
2016/05/16,20:40,0.452,0.260,0.474,0.417,0.391,0.210,0.183,south-southwest,12.0,No
2016/05/16,20:50,0.448,0.261,0.469,0.416,0.394,0.211,0.183,south-southwest,13.7,No
2016/05/16,21:00,0.451,0.260,0.475,0.418,0.391,0.211,0.184,south-southwest,13.3,No
2016/05/16,21:10,0.447,0.261,0.469,0.416,0.395,0.210,0.183,south-southwest,13.4,No
2016/05/16,21:20,0.447,0.259,0.475,0.421,0.390,0.209,0.183,south-southwest,13.1,No
2016/05/16,21:30,0.449,0.261,0.472,0.415,0.395,0.211,0.184,south-southwest,13.5,No
2016/05/16,21:40,0.447,0.261,0.469,0.420,0.391,0.210,0.183,south-southwest,12.1,No
2016/05/16,21:50,0.450,0.260,0.473,0.416,0.393,0.210,0.183,south-southwest,12.3,No
2016/05/16,22:00,0.445,0.262,0.470,0.419,0.391,0.211,0.183,south-southwest,10.9,No
2016/05/16,22:10,0.451,0.260,0.473,0.415,0.393,0.210,0.183,south-southwest,10.7,No
2016/05/16,22:20,0.448,0.262,0.469,0.417,0.392,0.211,0.182,south-southwest,14.6,No
2016/05/16,22:30,0.450,0.260,0.475,0.416,0.392,0.209,0.183,south-southwest,14.6,No
2016/05/16,22:40,0.449,0.261,0.471,0.417,0.394,0.210,0.184,south-southwest,16.5,No
2016/05/16,22:50,0.447,0.260,0.472,0.418,0.391,0.210,0.182,south-southwest,17.2,No
2016/05/16,23:00,0.451,0.263,0.471,0.416,0.395,0.212,0.184,south-southwest,15.1,No
2016/05/16,23:10,0.447,0.259,0.472,0.420,0.391,0.210,0.183,south-southwest,15.2,No
2016/05/16,23:20,0.451,0.262,0.475,0.416,0.395,0.210,0.184,south-southwest,13.8,No
2016/05/16,23:30,0.447,0.260,0.471,0.419,0.391,0.210,0.183,south-southwest,15.3,No
2016/05/16,23:40,0.451,0.261,0.476,0.415,0.394,0.210,0.185,south-southwest,15.2,No
2016/05/16,23:50,0.448,0.259,0.469,0.419,0.391,0.212,0.183,south-southwest,14.6,No
